Weather in Kalmash

Russia / Republic of Tatarstan     55°43′56″N   52°38′07″E
temp.,
°C
wind,
m/s
gust,
m/s
humid.,
%
clouds,
%
prec.,
mm/h
press.,
hPa
HPBL,
m
12 april, mon
mon1200:00+5n2399100 1.8 1033105
03:00+4nne3699100 3.1 1035194
06:00+4nne3690100 3.7 1037204
09:00+5ne2781100 4.4 1038220
12:00+5ene1483100 0.4 1038113
15:00+8e1375100 0.4 103999
18:00+8ene2278100 0.0 103812
21:00+6e3386100 0.0 103928
13 april, tue
tue1300:00+5e3690100 0.0 103986
03:00+4e3490100 0.0 103957
06:00+4e358899 0.0 1039123
09:00+9ese356999 0.0 1038282
12:00+14se3357100 0.0 1036531
15:00+16s235783 0.0 1035756
18:00+14se227012 0.0 103315
21:00+12s228160 0.0 103317
14 april, wed
wed1400:00+10ssw338062 0.0 103320
03:00+9ssw337857 0.0 103318
06:00+9ssw227555 0.0 103227
09:00+14ssw235435 0.0 1032374
12:00+17s34456 0.0 1030905
15:00+18s344433 0.0 10281090
18:00+15sse33575 0.0 102726
21:00+12s226861 0.0 102711
15 april, thu
thu1500:00+11s22725 0.0 102610
03:00+9s227455 0.0 102511
06:00+9s22727 0.0 102429
09:00+14ssw45485 0.0 1023449
12:00+17sw34375 0.0 10221182
15:00+18sw34365 0.0 10201362
18:00+15wsw22505 0.0 101915
21:00+12sw22600 0.0 101810
16 april, fri
fri1600:00+10sw22680 0.0 101710
03:00+9sw227344 0.0 101610
06:00+9wsw227299 0.0 101517
09:00+15wsw345637 0.0 1014446
12:00+18wsw56445 0.0 10122004
15:00+15wnw475954 0.2 1011265
18:00+13nnw7116458 0.5 1011501
21:00+4n91288100 0.5 1014722